IT9DBI-3 Weather Reports


Display with metric or nautical units.
time (UTC)temp
F
wind
direction
speed
MPH
gust
MPH
rain 1hr
in
rain 24hr
in
rain mn
in
humidity
%
barometer
mb
20260906081844 93 0.0 0.0 0.00 0.00 0.00 42 1019.2
20260906075843 92 0.0 0.0 0.00 0.00 0.00 44 1019.1
20260906073842 91 0.0 0.0 0.00 0.00 0.00 47 1019.1
20260906071840 91 0.0 0.0 0.00 0.00 0.00 49 1019.0
20260906065839 91 0.0 0.0 0.00 0.00 0.00 53 1018.9
20260906063838 90 0.0 0.0 0.00 0.00 0.00 54 1018.8
20260906061837 88 0.0 0.0 0.00 0.00 0.00 56 1018.8
20260906055835 87 0.0 0.0 0.00 0.00 0.00 57 1018.7
20260906053834 84 0.0 0.0 0.00 0.00 0.00 61 1018.7
20260906051833 82 0.0 0.0 0.00 0.00 0.00 62 1018.7
20260906045831 80 0.0 0.0 0.00 0.00 0.00 62 1018.6
20260906043830 80 0.0 0.0 0.00 0.00 0.00 60 1018.5
20260906041829 79 0.0 0.0 0.00 0.00 0.00 58 1018.5
20260906035828 80 0.0 0.0 0.00 0.00 0.00 57 1018.4
20260906033826 79 0.0 0.0 0.00 0.00 0.00 57 1018.2
20260906031825 80 0.0 0.0 0.00 0.00 0.00 56 1018.0
20260906025824 79 0.0 0.0 0.00 0.00 0.00 56 1018.1
20260906023823 79 0.0 0.0 0.00 0.00 0.00 55 1018.3
20260906021821 79 0.0 0.0 0.00 0.00 0.00 55 1018.3
20260906015820 79 0.0 0.0 0.00 0.00 0.00 57 1018.3
20260906013819 80 0.0 0.0 0.00 0.00 0.00 56 1018.2
20260906011817 82 0.0 0.0 0.00 0.00 0.00 55 1018.2
20260906005816 83 0.0 0.0 0.00 0.00 0.00 54 1018.0
20260906003815 83 0.0 0.0 0.00 0.00 0.00 58 1018.1
20260906001813 83 0.0 0.0 0.00 0.00 0.00 62 1018.1
20260905235812 82 0.0 0.0 0.00 0.00 0.00 65 1018.4
20260905233811 82 0.0 0.0 0.00 0.00 0.00 65 1018.4
20260905231809 83 0.0 0.0 0.00 0.00 0.00 65 1018.6
20260905225808 84 0.0 0.0 0.00 0.00 0.00 64 1018.5
20260905223807 84 0.0 0.0 0.00 0.00 0.00 64 1018.6
20260905221805 84 0.0 0.0 0.00 0.00 0.00 66 1018.5
20260905215804 85 0.0 0.0 0.00 0.00 0.00 64 1018.5
20260905213803 84 0.0 0.0 0.00 0.00 0.00 65 1018.5
20260905211802 84 0.0 0.0 0.00 0.00 0.00 63 1018.6
20260905205800 83 0.0 0.0 0.00 0.00 0.00 66 1018.6
20260905203759 84 0.0 0.0 0.00 0.00 0.00 65 1018.6
20260905201758 84 0.0 0.0 0.00 0.00 0.00 64 1018.6
20260905195756 84 0.0 0.0 0.00 0.00 0.00 63 1018.7
20260905193755 85 0.0 0.0 0.00 0.00 0.00 61 1018.7
20260905191754 85 0.0 0.0 0.00 0.00 0.00 61 1018.5
20260905185753 85 0.0 0.0 0.00 0.00 0.00 60 1018.3
20260905183751 86 0.0 0.0 0.00 0.00 0.00 59 1018.0
20260905181750 86 0.0 0.0 0.00 0.00 0.00 57 1017.9
20260905175749 87 0.0 0.0 0.00 0.00 0.00 55 1017.8
20260905173747 89 0.0 0.0 0.00 0.00 0.00 51 1017.6
20260905171746 93 0.0 0.0 0.00 0.00 0.00 45 1017.4
20260905165745 95 0.0 0.0 0.00 0.00 0.00 41 1017.2
20260905163743 97 0.0 0.0 0.00 0.00 0.00 39 1017.2
20260905161742 99 0.0 0.0 0.00 0.00 0.00 36 1017.2
20260905155741 99 0.0 0.0 0.00 0.00 0.00 37 1017.3
20260905153739 100 0.0 0.0 0.00 0.00 0.00 36 1017.3
20260905151738 101 0.0 0.0 0.00 0.00 0.00 36 1017.2
20260905145737 101 0.0 0.0 0.00 0.00 0.00 35 1017.2
20260905143735 101 0.0 0.0 0.00 0.00 0.00 35 1017.1
20260905141734 102 0.0 0.0 0.00 0.00 0.00 34 1017.1
20260905135733 100 0.0 0.0 0.00 0.00 0.00 36 1017.3
20260905133732 101 0.0 0.0 0.00 0.00 0.00 37 1017.4
20260905131730 100 0.0 0.0 0.00 0.00 0.00 37 1017.5
20260905125729 101 0.0 0.0 0.00 0.00 0.00 35 1017.5
20260905123728 99 0.0 0.0 0.00 0.00 0.00 35 1017.8
20260905121727 98 0.0 0.0 0.00 0.00 0.00 33 1017.9
20260905115725 99 0.0 0.0 0.00 0.00 0.00 35 1018.0
20260905113724 97 0.0 0.0 0.00 0.00 0.00 37 1018.2
20260905111723 98 0.0 0.0 0.00 0.00 0.00 36 1018.3
20260905105721 97 0.0 0.0 0.00 0.00 0.00 37 1018.3
20260905103720 97 0.0 0.0 0.00 0.00 0.00 36 1018.1
20260905101718 97 0.0 0.0 0.00 0.00 0.00 33 1018.2
20260905095717 96 0.0 0.0 0.00 0.00 0.00 34 1018.1
20260905093716 95 0.0 0.0 0.00 0.00 0.00 33 1018.2
20260905091715 96 0.0 0.0 0.00 0.00 0.00 31 1018.2
20260905085713 94 0.0 0.0 0.00 0.00 0.00 40 1018.4
20260905083712 95 0.0 0.0 0.00 0.00 0.00 37 1018.3